Flag for Liberia Weather past 2 weeks in Monrovia, Liberia

Now
77 °F

Passing clouds.


Feels Like: 78 °F
Forecast: 75 / 78 °F
Wind: 5 mph from Southwest

Location: Roberts Field

Current Time: Sep 2, 2015 at 6:54:47 AM

Latest Report: Sep 2, 2015 at 6:00 AM


Visibility: N/A

Pressure: 29.92 "Hg

Humidity: 94%

Dew point: 75 °F

Location of MonroviaLocation

Historic Weather in Monrovia — Graph

°F

Monrovia temperature yesterday

Maximum temperature yesterday: 84 °F (at 12:30 PM)
Minimum temperature yesterday: 75 °F (at 2:30 AM)
Average temperature yesterday: 79 °F

Past Weeks' High & Low Weather Summary

 TemperatureHumidityPressure
High84 °F (Aug 26, 12:30 PM)100% (Aug 25, 2:30 AM)30.07 "Hg (Aug 25, 2:30 AM)
Low72 °F (Aug 25, 6:30 AM)70% (Aug 31, 12:30 PM)29.86 "Hg (Aug 18, 5:00 PM)
Average78 °F90%29.94 "Hg
* Reported Aug 18 4:00 AM — Sep 2 4:30 AM, Monrovia, Weather by CustomWeather, © 2015

Note: Actual official high and low records may vary slightly from our data, if they occured in-between our weather recording intervals... More about our weather records

Advertising

Monrovia weather history for previous 24 hours

 ConditionsComfort  
Time TempWeatherWind HumidityBarometerVisibility
4:30 AM
Wed, Sep 2
77 °FPassing clouds.5 mph94%29.89 "HgN/A
4:00 AM75 °FPassing clouds.5 mph94%29.89 "HgN/A
3:00 AM75 °FPassing clouds.No wind94%29.92 "HgN/A
2:30 AM75 °FPassing clouds.3 mph94%29.92 "HgN/A
1:30 AM77 °FPassing clouds.No wind94%29.95 "HgN/A
1:00 AM77 °FPassing clouds.No wind94%29.95 "HgN/A
12:30 AM77 °FPassing clouds.No wind94%29.98 "HgN/A
12:00 AM77 °FPassing clouds.No wind94%29.98 "HgN/A
11:30 PM
Tue, Sep 1
77 °FPassing clouds.No wind94%29.98 "HgN/A
11:00 PM77 °FPassing clouds.3 mph94%29.98 "HgN/A
9:00 PM77 °FPassing clouds.No wind94%29.95 "HgN/A
8:00 PM77 °FPassing clouds.No wind94%29.95 "HgN/A
7:30 PM77 °FScattered clouds.3 mph94%29.92 "HgN/A
6:30 PM79 °FScattered clouds.3 mph89%29.92 "HgN/A
6:00 PM79 °FPartly sunny.6 mph89%29.92 "HgN/A
5:30 PM79 °FPartly sunny.14 mph89%29.92 "HgN/A
5:00 PM81 °FPartly sunny.8 mph84%29.92 "HgN/A
4:30 PM81 °FPartly sunny.8 mph84%29.92 "HgN/A
4:00 PM81 °FPartly sunny.7 mph84%29.92 "HgN/A
3:30 PM81 °FPartly sunny.8 mph84%29.92 "HgN/A
3:00 PM82 °FPartly sunny.14 mph84%29.92 "HgN/A
2:30 PM82 °FPartly sunny.14 mph84%29.95 "HgN/A
2:00 PM82 °FPartly sunny.13 mph84%29.95 "HgN/A
1:30 PM82 °FPartly sunny.13 mph84%29.95 "HgN/A
1:00 PM84 °FPartly sunny.9 mph79%29.98 "HgN/A
12:30 PM84 °FPartly sunny.15 mph79%29.98 "HgN/A
12:00 PM82 °FPartly sunny.9 mph79%29.98 "HgN/A
11:30 AM82 °FPartly sunny.8 mph79%30.01 "HgN/A
11:00 AM82 °FPartly sunny.5 mph84%30.01 "HgN/A
10:30 AM82 °FPartly sunny.6 mph84%30.01 "HgN/A
10:00 AM82 °FPartly sunny.5 mph79%30.01 "HgN/A
9:30 AM81 °FPartly sunny.5 mph84%30.01 "HgN/A
9:00 AM79 °FPartly sunny.No wind94%30.01 "HgN/A
8:30 AM79 °FPartly sunny.No wind89%30.01 "HgN/A
8:00 AM77 °FPartly sunny.No wind94%30.01 "HgN/A
7:30 AM77 °FPassing clouds.No wind94%30.01 "HgN/A
7:00 AM75 °FPassing clouds.No wind94%29.98 "HgN/A
6:30 AM75 °FPassing clouds.No wind94%29.98 "HgN/A
Weather by CustomWeather, © 2015

See weather overviewHow to use our weather pages